ELECTRON KICK STAGE R/B, 54024

Orbit data source: Space-Track

ELECTRON KICK STAGE R/B, 54024 is space debris in SSO originally from a launch on Fri, 07 Oct 2022 UTC launched from the Rocket Lab Launch Complex (RLLC). Debris objects in space refer to the collection of defunct objects orbiting the Earth. Examples of debris include non-operational satellites, rocket bodies, and fragments generated from explosions, collisions, or faulty payload assembly.

Loading next visibility...
Identifier
54024, 2022-127B
Orbit
SSO
Country
Flag of USUS
Related business
Manufacturer
Rocket Lab
Mission
Spacecraft
Bus & Motor
KICK STAGE, CURIE
Mass
~40 kg wet, ~40 kg dry
Launch date (UTC)
2022-10-07 (4 years ago)
Launch vehicle
Unknown
Launch site
Rocket Lab Launch Complex (RLLC)
Object type
Payload
Rocket body
Debris
Shape & HBR
Trunc Cone, 0.7 m
Radar Cross Section
0.760 m², Large (>1 m²)

Expand to show TLE details & history
Last TLE update: 2 days ago

TLE from 2 days ago
0 ELECTRON KICK STAGE R/B
1 54024U 22127B   26171.41404120  .00002050  00000-0  21085-3 0  9998
2 54024  98.1799 229.4911 0110017 358.1878   1.8923 14.87156211199882
Epoch: 2026-06-20T09:56Z
TLE epoch observation values (Epoch: 2026-06-20T09:56:13.159Z)
Latitude
-0.00002°
Longitude
171.80726°
Altitude
533.029 km
Speed
7.638 km/s
True Right ascension
15h 17m 57s
True Declination
0° 00' 00"
Sunlit
Object was in full shadow at epoch
Visualization orbit readout
Latitude
Unknown
Longitude
Unknown
Altitude
Unknown
Speed
Unknown
Apparent Right ascension
Unknown
Apparent Declination
Unknown
Sunlit
N/A
Visualization observer readout
Local Sidereal Time
21:39:43
Azimuth
Unknown
Elevation
Unknown
Doppler factor
Unknown
Orbital elements
Apogee altitude
680.684 km
Perigee altitude
527.056 km
Semi-major axis
6,982.007 km
Eccentricity
0.011
Inclination
98.1799°
RAAN
229.4911°
Arg. of periapsis
358.1878°
True anomaly
1.93451°
Mean anomaly
1.8923°
Eccentric anomaly
1.91335°
Mean motion
3.72026 °/min
Orbital period
96.77 mins
BSTAR
0.00021085
Loading maneuver chart data...
Computing Atmospheric mass density...
Loading historical data...
Loading historical data...
Loading historical data...
Loading historical data...
Loading historical data...
Loading historical data...
Loading historical data...
Other satellites on launch #127 in the year 2022 (2022-10-07 UTC)

Documentation

Showing up to 5 results
|